Tracking 30143 objects as of 26-Jan-2025
HD Live streaming from Space Station
objects crossing your sky now

STARLINK-3583

Track STARLINK-3583 now!
10-day predictions
STARLINK-3583 is classified as:


NORAD ID: 51876
Int'l Code: 2022-022AA
Perigee: 545.9 km
Apogee: 547.9 km
Inclination: 53.2 °
Period: 95.4 minutes
Semi major axis: 6917 km
RCS: Unknown
Launch date: March 3, 2022
Source: United States (US)
Launch site: AIR FORCE EASTERN TEST RANGE (AFETR)
Your satellite tracking list
Your tracking list is empty




NASA's NSSDC Master Catalog

Two Line Element Set (TLE):
1 51876U 22022AA  25025.30325866 -.00000782  00000-0 -31079-4 0  9995
2 51876  53.2179  42.4381 0001456  95.6046 264.5112 15.08830332161466
Source of the keplerian elements: AFSPC